Weather History for KCAE - August, 2013

Change the Weather History Date:

Thursday, August 29, 2013

  Actual Average Record
Temperature  
Mean Temperature 85 °F 79 °F  
Max Temperature 96 °F 89 °F 102 °F (1948)
Min Temperature 73 °F 70 °F 56 °F (1969)
Degree Days  
Heating Degree Days 0 0  
Month to date heating degree days 0 0  
Since 1 June heating degree days 0 1  
Since 1 July heating degree days 0 0  
Cooling Degree Days 20 14  
Month to date cooling degree days 420 465  
Year to date cooling degree days 1662 1742  
Since 1 June cooling degree days 1342 1421  
Growing Degree Days 34 (Base 50)    
Moisture  
Dew Point 71 °F    
Average Humidity 65    
Maximum Humidity 87    
Minimum Humidity 42    
Precipitation  
Precipitation T in 0.13 in 4.20 in (1964)
Month to date precipitation 7.51 4.98  
Year to date precipitation 43.51 31.64  
Sea Level Pressure  
Sea Level Pressure 29.92 in    
Wind  
Wind Speed 4 mph (NW)    
Max Wind Speed 25 mph    
Max Gust Speed 32 mph    
Visibility 8 miles    
Events Rain , Thunderstorm    
T = Trace of Precipitation, MM = Missing Value Source: NWS Daily Summary

Daily Weather History Graph

Daily Weather History Graph

Search for Another Location

Airport or City:

Trip Planner

Search our weather history database for the weather conditions in past years. The results will help you decide how hot, cold, wet, or windy it might be!

Date:

Astronomy

Aug. 29, 2013 Rise Set
Actual Time 6:56 AM EDT 7:53 PM EDT
Civil Twilight 6:30 AM EDT 8:19 PM EDT
Nautical Twilight 6:00 AM EDT 8:49 PM EDT
Astronomical Twilight 5:28 AM EDT 9:20 PM EDT
Moon 12:54 AM EDT (8/29) 3:13 PM EDT (8/29)
Length of Visible Light 13h 48m
Length of Day
12h 57m
Last Quarter, 38% of the Moon is Illuminated
Aug 29
Last Quarter
Sep 5
New
Sep 12
First Quarter
Sep 19
Full
Sep 26
Last Quarter

Hourly Weather History & Observations

Time (EDT) Temp. Heat Index Dew Point Humidity Pressure Visibility Wind Dir Wind Speed Gust Speed Precip Events Conditions
12:56 AM 75.9 °F - 69.1 °F 79% 29.94 in 8.0 mi WSW 3.5 mph - N/A   Clear
1:56 AM 75.0 °F - 69.1 °F 82% 29.93 in 8.0 mi Calm Calm - N/A   Clear
2:56 AM 75.0 °F - 69.1 °F 82% 29.93 in 7.0 mi WSW 5.8 mph - N/A   Clear
3:56 AM 75.0 °F - 69.1 °F 82% 29.92 in 7.0 mi Calm Calm - N/A   Clear
4:56 AM 73.9 °F - 69.1 °F 85% 29.92 in 6.0 mi WSW 5.8 mph - N/A   Haze
5:56 AM 73.9 °F - 69.1 °F 85% 29.92 in 6.0 mi WSW 4.6 mph - N/A   Haze
6:56 AM 73.0 °F - 69.1 °F 87% 29.93 in 5.0 mi SW 3.5 mph - N/A   Partly Cloudy
7:56 AM 73.0 °F - 69.1 °F 87% 29.94 in 4.0 mi WSW 3.5 mph - N/A   Partly Cloudy
8:56 AM 78.1 °F - 71.1 °F 79% 29.94 in 5.0 mi SW 3.5 mph - N/A   Haze
9:56 AM 84.0 °F 90.2 °F 73.0 °F 69% 29.94 in 6.0 mi West 4.6 mph - N/A   Haze
10:56 AM 88.0 °F 95.6 °F 73.0 °F 61% 29.94 in 7.0 mi NW 4.6 mph - N/A   Partly Cloudy
11:56 AM 89.1 °F 96.0 °F 72.0 °F 57% 29.93 in 8.0 mi West 5.8 mph - N/A   Mostly Cloudy
12:56 PM 91.9 °F 99.5 °F 72.0 °F 52% 29.92 in 8.0 mi NW 6.9 mph - N/A   Scattered Clouds
1:56 PM 93.9 °F 103.4 °F 73.0 °F 51% 29.91 in 8.0 mi Variable 3.5 mph - N/A   Scattered Clouds
2:56 PM 93.9 °F 103.4 °F 73.0 °F 51% 29.89 in 9.0 mi WNW 8.1 mph - N/A   Scattered Clouds
3:56 PM 95.0 °F 103.2 °F 72.0 °F 47% 29.88 in 9.0 mi NW 8.1 mph - N/A   Scattered Clouds
4:56 PM 96.1 °F 102.9 °F 70.0 °F 43% 29.87 in 10.0 mi NNW 5.8 mph - N/A   Scattered Clouds
5:56 PM 93.9 °F 100.8 °F 71.1 °F 47% 29.86 in 10.0 mi NNW 4.6 mph - N/A   Scattered Clouds
6:56 PM 93.0 °F 100.1 °F 71.1 °F 49% 29.87 in 10.0 mi NW 5.8 mph - N/A   Partly Cloudy
7:56 PM 90.0 °F 96.9 °F 72.0 °F 55% 29.88 in 9.0 mi NNW 3.5 mph - N/A   Scattered Clouds
8:56 PM 88.0 °F 95.6 °F 73.0 °F 61% 29.91 in 10.0 mi Calm Calm - N/A   Scattered Clouds
9:28 PM 84.2 °F 90.9 °F 73.4 °F 70% 29.94 in 10.0 mi ENE 19.6 mph 26.5 mph N/A Thunderstorm Thunderstorm
9:48 PM 78.8 °F - 71.6 °F 78% 29.94 in 8.0 mi ENE 10.4 mph 23.0 mph 0.00 in Rain , Thunderstorm Light Thunderstorms and Rain
9:56 PM 79.0 °F - 71.1 °F 77% 29.93 in 10.0 mi ENE 8.1 mph - 0.00 in Rain , Thunderstorm Light Thunderstorms and Rain
10:12 PM 80.6 °F 84.6 °F 71.6 °F 74% 29.94 in 10.0 mi ENE 6.9 mph - 0.00 in   Mostly Cloudy
10:56 PM 80.1 °F 83.6 °F 71.1 °F 74% 29.94 in 10.0 mi NE 3.5 mph - 0.00 in   Overcast
11:56 PM 80.1 °F 84.2 °F 73.0 °F 79% 29.95 in 10.0 mi NE 3.5 mph - N/A   Overcast